Powrót do katalogu

STARLINK-31728

AktywnyŁącznośćVLEO
NORAD 59496·PAYLOAD·🇺🇸 United States

Wystrzelony Apr 13, 2024 z Cape Canaveral Space Force Station

Loading…

Następne Przeloty (najbliższe 24 godziny)

TLE

ŚwieżeSource: CelesTrak SupGP

Epoka: Sep 15, 2026, 02:05 UTC

1 59496C 24071N   26258.08729167  .00029142  00000+0  10554-2 0  2582
2 59496  43.0030 350.1007 0001422 263.7054  29.5155 15.27568284    13

Śledź STARLINK-31728 w czasie rzeczywistym z AllMySat

Download on the App Store